KB2KRJ Weather Reports


Display with metric or nautical units.
time (UTC)temp
F
wind
direction
speed
MPH
gust
MPH
rain 1hr
in
rain 24hr
in
rain mn
in
humidity
%
barometer
mb
20260903144510 69 162 0.0 0.0 0.00 0.00 0.00 100 1014.1
20260903143008 69 162 0.0 1.0 0.00 0.00 0.00 100 1014.3
20260903141503 68 162 0.0 0.0 0.00 0.00 0.00 100 1014.4
20260903140058 68 162 0.0 0.0 0.00 0.00 0.00 100 1014.3
20260903134553 68 162 0.0 0.0 0.00 0.00 0.00 100 1014.3
20260903133053 67 162 0.0 0.0 0.00 0.00 0.00 100 1014.1
20260903131603 67 162 0.0 0.0 0.00 0.00 0.00 100 1014.3
20260903130039 66 162 0.0 0.0 0.00 0.00 0.00 100 1014.1
20260903124539 0 0.0 0.0 0.00 0.00 0.00 1014.4
20260903123038 0 0.0 0.0 0.00 0.00 0.00 1014.6
20260903121533 0 0.0 0.0 0.00 0.00 0.00 1014.6
20260903120022 0 0.0 0.0 0.00 0.00 0.00 1014.6
20260903114518 0 0.0 0.0 0.00 0.00 0.00 1014.8
20260903113031 0 0.0 0.0 0.00 0.00 0.00 1014.7
20260903111512 0 0.0 0.0 0.00 0.00 0.00 1014.7
20260903110005 0 0.0 0.0 0.00 0.00 0.00 1014.8
20260903104601 0 0.0 0.0 0.00 0.00 0.00 1014.9
20260903103058 0 0.0 0.0 0.00 0.00 0.00 1014.8
20260903101557 65 162 0.0 0.0 0.00 0.00 0.00 100 1014.7
20260903100045 65 162 0.0 0.0 0.00 0.00 0.00 100 1014.7
20260903094540 65 162 0.0 0.0 0.00 0.00 0.00 100 1014.6
20260903093041 65 162 0.0 0.0 0.00 0.00 0.00 100 1014.3
20260903091534 65 162 0.0 0.0 0.00 0.00 0.00 100 1014.5
20260903090027 65 162 0.0 0.0 0.00 0.00 0.00 100 1014.6
20260903084525 65 162 0.0 0.0 0.00 0.00 0.00 100 1014.5
20260903083017 65 162 0.0 0.0 0.00 0.00 0.00 100 1014.5
20260903081515 65 162 0.0 0.0 0.00 0.00 0.00 100 1014.5
20260903080011 65 162 0.0 0.0 0.00 0.00 0.00 100 1014.5
20260903074504 65 162 0.0 0.0 0.00 0.00 0.00 100 1014.4
20260903073001 65 162 0.0 0.0 0.00 0.00 0.00 100 1014.3
20260903071558 65 162 0.0 0.0 0.00 0.00 0.00 100 1014.0
20260903070004 65 162 0.0 1.0 0.00 0.00 0.00 100 1014.2
20260903064600 65 162 0.0 0.0 0.00 0.00 0.00 100 1014.1
20260903063055 65 162 0.0 1.0 0.00 0.00 0.00 100 1014.1
20260903061557 65 162 0.0 5.0 0.00 0.00 0.00 100 1014.0
20260903060046 65 179 0.0 4.0 0.00 0.00 0.00 100 1014.2
20260903054542 65 130 1.0 6.0 0.00 0.00 0.00 100 1014.5
20260903053038 65 169 0.0 3.0 0.00 0.00 0.00 100 1015.1
20260903051533 65 125 0.0 7.0 0.00 0.00 0.00 100 1015.6
20260903050029 65 192 0.0 2.0 0.00 0.00 0.00 100 1015.4
20260903044524 65 314 0.0 2.0 0.00 0.00 0.00 100 1015.9
20260903043024 65 110 0.0 2.0 0.00 0.00 0.00 100 1014.5
20260903041517 65 69 0.0 3.0 0.00 0.00 0.00 100 1015.9
20260903040011 66 111 0.0 3.0 0.00 0.00 0.00 100 1016.6
20260903034507 66 169 0.0 0.0 0.00 0.00 0.00 100 1016.9
20260903033002 67 169 0.0 5.0 0.00 0.00 0.00 100 1017.2
20260903031559 67 255 0.0 8.0 0.00 0.00 0.00 100 1016.6
20260903030054 66 165 0.0 4.0 0.00 0.00 0.00 100 1016.6
20260903024553 66 55 1.0 6.0 0.00 0.00 0.00 100 1016.7
20260903023058 66 147 1.0 8.0 0.00 0.00 0.00 100 1016.6
20260903021540 66 156 1.0 9.0 0.00 0.00 0.00 100 1017.6
20260903020049 66 178 0.0 6.0 0.00 0.00 0.00 100 1018.0
20260903014534 66 131 0.0 11.0 0.00 0.00 0.00 100 1017.9
20260903013027 66 114 0.0 4.0 0.00 0.00 0.00 100 1017.8
20260903011523 66 106 1.0 7.0 0.00 0.00 0.00 100 1018.0
20260903010018 66 154 0.0 4.0 0.00 0.00 0.00 100 1018.3
20260903004513 66 156 2.0 9.0 0.00 0.00 0.00 100 1018.4
20260903003009 66 150 1.0 9.0 0.00 0.00 0.00 100 1018.1
20260903001505 66 97 2.0 10.0 0.00 0.00 0.00 100 1017.6
20260902234606 66 188 2.0 9.0 0.00 0.00 0.00 100 1017.2
20260902233052 66 115 0.0 10.0 0.00 0.00 0.00 100 1017.7
20260902231548 66 150 1.0 11.0 0.00 0.00 0.00 100 1018.1
20260902230047 67 167 1.0 7.0 0.00 0.00 0.00 100 1018.3
20260902224538 67 238 2.0 15.0 0.00 0.00 0.00 100 1018.3
20260902223035 67 206 0.0 6.0 0.00 0.00 0.00 100 1018.7
20260902221534 67 142 1.0 12.0 0.00 0.00 0.00 100 1018.8
20260902220030 67 145 2.0 7.0 0.00 0.00 0.00 100 1018.9
20260902214521 67 115 2.0 11.0 0.00 0.00 0.00 100 1018.7
20260902213017 67 171 1.0 10.0 0.00 0.00 0.00 100 1019.0
20260902211513 67 192 1.0 14.0 0.00 0.00 0.00 100 1019.1
20260902210010 67 184 4.0 14.0 0.00 0.00 0.00 100 1019.2
20260902204507 67 192 4.0 12.0 0.00 0.00 0.00 100 1019.0
20260902203101 66 132 1.0 11.0 0.00 0.00 0.00 100 1019.1
20260902201604 66 157 2.0 7.0 0.00 0.00 0.00 100 1019.2
20260902200051 66 169 1.0 12.0 0.00 0.00 0.00 100 1019.1
20260902194549 66 165 2.0 11.0 0.00 0.00 0.00 100 1019.1
20260902193042 65 213 0.0 7.0 0.00 0.00 0.00 100 1019.0
20260902191539 65 171 1.0 9.0 0.00 0.00 0.00 100 1019.3
20260902190033 64 144 0.0 10.0 0.00 0.00 0.00 100 1019.6
20260902184529 64 174 1.0 7.0 0.00 0.00 0.00 100 1019.6
20260902183025 64 235 0.0 7.0 0.00 0.00 0.00 100 1019.2
20260902181520 64 129 0.0 4.0 0.00 0.00 0.00 100 1019.2
20260902180015 64 230 0.0 9.0 0.00 0.00 0.00 100 1019.1
20260902174511 65 160 0.0 5.0 0.00 0.00 0.00 100 1019.5
20260902173007 65 244 0.0 5.0 0.00 0.00 0.00 100 1019.4
20260902171503 65 163 0.0 7.0 0.00 0.00 0.00 100 1020.6
20260902170059 66 178 1.0 8.0 0.00 0.00 0.00 100 1020.8
20260902164555 66 193 1.0 8.0 0.00 0.00 0.00 100 1020.7
20260902163052 66 187 1.0 7.0 0.00 0.00 0.00 100 1020.7
20260902161545 66 124 0.0 6.0 0.00 0.00 0.00 100 1020.5
20260902160048 66 153 0.0 6.0 0.00 0.00 0.00 100 1020.4
20260902154536 65 164 0.0 7.0 0.00 0.00 0.00 100 1020.6
20260902153033 65 181 1.0 8.0 0.00 0.00 0.00 100 1020.7
20260902151528 64 144 0.0 6.0 0.00 0.00 0.00 100 1020.6
20260902150024 64 229 0.0 5.0 0.00 0.00 0.00 100 1020.3